map of OSH home
OSH - Airport
Location
City:  Oshkosh, Wisconsin, United States
Name:Wittman Regional
ICAO:KOSH
IATA:OSH
FAA LID:OSH

Details
Type:Airport (Airfield)
Use:Public/Civil
Latitude:4359'04"N (43.984491)
Longitude:8833'25"W (-88.556934)
Datum:WGS 1984
Elevation:808 ft (246 m)
Variation:3.59W (WMM2015 magnetic declination)
-0.05 annual change
Runways:4
Longest:8002 × 150 ft (2439 × 45.5 m), paved

Time
Time Zone:UTC-6 (DST-5)
Local Time:

Weather
METAR:KOSH 102253Z 24004KT 8SM CLR M02/M08 A3006 RMK AO2 SLP198 T10221078

Related Locations
Nearby:
Farthest:YAUG: 11009 mi / 17718 km
Augusta [Augusta Airport], WA, AU

Find:

   beyond  
but within

Other Information
Maps:
Delays:
NOTAMs:
Links:
Sources:

  
  • flag of United States
  • flag of Wisconsin
  

Airport Diagram

Airport diagram for OSH

Airport diagram PDF

Sectional Chart

Flight Planning
at skyvector.com

Satellite Image

Google Maps Satellite view

 

Copyright © 2004-2018 Karl L. Swartz. All rights reserved.
The Great Circle Mapper name and logo are trademarks of the Great Circle Mapper.
All other trademarks mentioned herein belong to their respective owners.
Please see credits for attibutions and further copyright information.

  Follow gcmap on Facebook Follow gcmap on Twitter Follow gcmap on Google+ GCmap on LinkedIn

hCard Microformat

Geo Microformat